Weather History for Muscatine, IA

Change the Weather History Date:

Friday, February 15, 2013

  Actual Average Record
Temperature  
Mean Temperature 26 °F -  
Max Temperature 32 °F 35 °F 64 °F (1954)
Min Temperature 17 °F 19 °F -6 °F (1963)
Degree Days  
Heating Degree Days 40    
Moisture  
Dew Point 10 °F    
Average Humidity 54    
Maximum Humidity 69    
Minimum Humidity 32    
Precipitation  
Precipitation 0.00 in - - ()
Sea Level Pressure  
Sea Level Pressure 30.23 in    
Wind  
Wind Speed 13 mph (NW)    
Max Wind Speed 18 mph    
Max Gust Speed 26 mph    
Visibility 10 miles    
Events      
Averages and records for this station are not official NWS values.
T = Trace of Precipitation, MM = Missing Value Source: NWS Daily Summary

Daily Weather History Graph

Daily Weather History Graph

Search for Another Location

Airport:

Trip Planner

Search our weather history database for the weather conditions in past years. The results will help you decide how hot, cold, wet, or windy it might be!

Date:

Astronomy

Feb. 15, 2013 Rise Set
Actual Time 6:59 AM CST 5:38 PM CST
Civil Twilight 6:30 AM CST 6:07 PM CST
Nautical Twilight 5:58 AM CST 6:39 PM CST
Astronomical Twilight 5:26 AM CST 7:11 PM CST
Moon 9:31 AM CST (2/15) 11:44 PM CST (2/15)
Length of Visible Light 11h 36m
Length of Day
10h 39m
Waxing Crescent, 30% of the Moon is Illuminated
Feb 15
Waxing Crescent
Feb 17
First Quarter
Feb 25
Full
Mar 4
Last Quarter
Mar 11
New

Hourly Weather History & Observations

Time (CST) Temp. Windchill Dew Point Humidity Pressure Visibility Wind Dir Wind Speed Gust Speed Precip Events Conditions
12:15 AM 30.2 °F 18.1 °F 21.2 °F 69% 30.08 in 10.0 mi NW 18.4 mph 24.2 mph N/A   Overcast
12:35 AM 28.4 °F 18.0 °F 19.4 °F 69% 30.09 in 10.0 mi NW 12.7 mph 19.6 mph N/A   Scattered Clouds
12:55 AM 26.6 °F 14.7 °F 15.8 °F 64% 30.10 in 10.0 mi NNW 15.0 mph - N/A   Clear
1:15 AM 26.6 °F 13.4 °F 10.4 °F 51% 30.11 in 10.0 mi NNW 18.4 mph 23.0 mph N/A   Clear
1:35 AM 24.8 °F 12.9 °F 10.4 °F 54% 30.12 in 10.0 mi NW 13.8 mph - N/A   Clear
1:55 AM 24.8 °F 11.9 °F 10.4 °F 54% 30.13 in 10.0 mi NW 16.1 mph 24.2 mph N/A   Clear
2:15 AM 24.8 °F 12.9 °F 8.6 °F 50% 30.14 in 10.0 mi NW 13.8 mph - N/A   Clear
2:35 AM 23.0 °F 11.1 °F 10.4 °F 59% 30.15 in 10.0 mi NW 12.7 mph 17.3 mph N/A   Clear
2:55 AM 23.0 °F 10.1 °F 8.6 °F 54% 30.15 in 10.0 mi NNW 15.0 mph 19.6 mph N/A   Clear
3:15 AM 23.0 °F 11.7 °F 8.6 °F 54% 30.16 in 10.0 mi NNW 11.5 mph 20.7 mph N/A   Clear
3:35 AM 21.2 °F 9.5 °F 8.6 °F 58% 30.16 in 10.0 mi NW 11.5 mph 17.3 mph N/A   Clear
3:55 AM 21.2 °F 8.9 °F 8.6 °F 58% 30.17 in 10.0 mi NNW 12.7 mph - N/A   Clear
4:15 AM 21.2 °F 9.5 °F 8.6 °F 58% 30.18 in 10.0 mi NW 11.5 mph 17.3 mph N/A   Clear
4:35 AM 21.2 °F 10.1 °F 8.6 °F 58% 30.19 in 10.0 mi NNW 10.4 mph 17.3 mph N/A   Clear
4:55 AM 21.2 °F 10.1 °F 8.6 °F 58% 30.20 in 10.0 mi NNW 10.4 mph - N/A   Clear
5:15 AM 21.2 °F 10.1 °F 8.6 °F 58% 30.21 in 10.0 mi NNW 10.4 mph - N/A   Clear
5:35 AM 21.2 °F 9.5 °F 8.6 °F 58% 30.21 in 10.0 mi NNW 11.5 mph - N/A   Clear
5:55 AM 21.2 °F 10.9 °F 8.6 °F 58% 30.22 in 10.0 mi NNW 9.2 mph - N/A   Clear
6:15 AM 19.4 °F 9.5 °F 8.6 °F 63% 30.23 in 10.0 mi NW 8.1 mph - N/A   Clear
6:35 AM 19.4 °F 9.5 °F 8.6 °F 63% 30.23 in 10.0 mi NW 8.1 mph - N/A   Clear
6:55 AM 19.4 °F 9.5 °F 8.6 °F 63% 30.24 in 10.0 mi NW 8.1 mph - N/A   Clear
7:15 AM 19.4 °F 11.5 °F 8.6 °F 63% 30.24 in 10.0 mi NW 5.8 mph - N/A   Clear
7:35 AM 19.4 °F 8.6 °F 8.6 °F 63% 30.25 in 10.0 mi NW 9.2 mph - N/A   Clear
7:55 AM 21.2 °F 11.7 °F 8.6 °F 58% 30.26 in 10.0 mi NW 8.1 mph - N/A   Clear
8:15 AM 23.0 °F 14.7 °F 8.6 °F 54% 30.26 in 10.0 mi WNW 6.9 mph - N/A   Clear
8:35 AM 23.0 °F 13.1 °F 8.6 °F 54% 30.26 in 10.0 mi WNW 9.2 mph - N/A   Clear
8:55 AM 24.8 °F 16.9 °F 8.6 °F 50% 30.27 in 10.0 mi NNW 6.9 mph - N/A   Clear
9:15 AM 24.8 °F 16.1 °F 8.6 °F 50% 30.27 in 10.0 mi WNW 8.1 mph - N/A   Clear
9:35 AM 26.6 °F 16.8 °F 10.4 °F 51% 30.27 in 10.0 mi NW 10.4 mph - N/A   Clear
9:55 AM 26.6 °F 16.8 °F 10.4 °F 51% 30.27 in 10.0 mi West 10.4 mph - N/A   Clear
10:15 AM 26.6 °F 15.7 °F 10.4 °F 51% 30.27 in 10.0 mi WNW 12.7 mph - N/A   Clear
10:35 AM 28.4 °F 19.1 °F 10.4 °F 47% 30.27 in 10.0 mi WNW 10.4 mph - N/A   Clear
10:55 AM 28.4 °F 18.5 °F 12.2 °F 51% 30.27 in 10.0 mi WNW 11.5 mph 17.3 mph N/A   Clear
11:15 AM 28.4 °F 18.0 °F 12.2 °F 51% 30.27 in 10.0 mi WNW 12.7 mph 18.4 mph N/A   Clear
11:55 AM 30.2 °F 20.8 °F 12.2 °F 47% 30.26 in 10.0 mi WNW 11.5 mph 15.0 mph N/A   Clear
12:15 PM 30.2 °F 18.9 °F 12.2 °F 47% 30.25 in 10.0 mi West 16.1 mph - N/A   Clear
12:35 PM 30.2 °F 19.3 °F 10.4 °F 44% 30.25 in 10.0 mi WNW 15.0 mph 19.6 mph N/A   Clear
12:55 PM 30.2 °F 18.9 °F 6.8 °F 37% 30.24 in 10.0 mi NW 16.1 mph 21.9 mph N/A   Clear
1:15 PM 30.2 °F 18.5 °F 5.0 °F 34% 30.24 in 10.0 mi WNW 17.3 mph - N/A   Clear
1:35 PM 32.0 °F 21.2 °F 6.8 °F 35% 30.23 in 10.0 mi West 16.1 mph 21.9 mph N/A   Clear
1:55 PM 30.2 °F 18.5 °F 6.8 °F 37% 30.23 in 10.0 mi NW 17.3 mph 20.7 mph N/A   Clear
2:15 PM 30.2 °F 18.1 °F 3.2 °F 32% 30.23 in 10.0 mi WNW 18.4 mph 25.3 mph N/A   Clear
2:35 PM 30.2 °F 18.9 °F 5.0 °F 34% 30.24 in 10.0 mi WNW 16.1 mph 24.2 mph N/A   Clear
2:55 PM 30.2 °F 19.3 °F 5.0 °F 34% 30.24 in 10.0 mi NW 15.0 mph 26.5 mph N/A   Clear
3:15 PM 28.4 °F 16.6 °F 8.6 °F 43% 30.25 in 10.0 mi WNW 16.1 mph 25.3 mph N/A   Scattered Clouds
3:35 PM 28.4 °F 18.5 °F 10.4 °F 47% 30.25 in 10.0 mi NW 11.5 mph 17.3 mph N/A   Mostly Cloudy
3:55 PM 28.4 °F 16.6 °F 8.6 °F 43% 30.26 in 10.0 mi WNW 16.1 mph 25.3 mph N/A   Mostly Cloudy
4:15 PM 28.4 °F 16.6 °F 10.4 °F 47% 30.26 in 10.0 mi NW 16.1 mph - N/A   Overcast
4:35 PM 26.6 °F 14.7 °F 10.4 °F 51% 30.26 in 10.0 mi WNW 15.0 mph 20.7 mph N/A   Overcast
4:55 PM 26.6 °F 14.3 °F 10.4 °F 51% 30.26 in 10.0 mi NW 16.1 mph 21.9 mph N/A   Mostly Cloudy
5:15 PM 24.8 °F 13.4 °F 8.6 °F 50% 30.26 in 10.0 mi NW 12.7 mph 17.3 mph N/A   Scattered Clouds
5:35 PM 24.8 °F 14.6 °F 8.6 °F 50% 30.26 in 10.0 mi WNW 10.4 mph - N/A   Scattered Clouds
5:55 PM 24.8 °F 15.3 °F 10.4 °F 54% 30.27 in 10.0 mi WNW 9.2 mph - N/A   Mostly Cloudy
6:15 PM 24.8 °F 15.3 °F 10.4 °F 54% 30.27 in 10.0 mi WNW 9.2 mph - N/A   Scattered Clouds
6:35 PM 24.8 °F 14.0 °F 10.4 °F 54% 30.27 in 10.0 mi WNW 11.5 mph 16.1 mph N/A   Scattered Clouds
6:55 PM 24.8 °F 14.0 °F 10.4 °F 54% 30.27 in 10.0 mi WNW 11.5 mph 18.4 mph N/A   Clear
7:15 PM 23.0 °F 12.4 °F 10.4 °F 59% 30.27 in 10.0 mi WNW 10.4 mph - N/A   Scattered Clouds
7:35 PM 23.0 °F 12.4 °F 10.4 °F 59% 30.27 in 10.0 mi NW 10.4 mph - N/A   Clear
7:55 PM 23.0 °F 13.9 °F 10.4 °F 59% 30.27 in 10.0 mi NW 8.1 mph - N/A   Clear
8:15 PM 21.2 °F 11.7 °F 10.4 °F 63% 30.27 in 10.0 mi WNW 8.1 mph - N/A   Clear
8:35 PM 21.2 °F 11.7 °F 10.4 °F 63% 30.27 in 10.0 mi NW 8.1 mph - N/A   Scattered Clouds
8:55 PM 21.2 °F 11.7 °F 10.4 °F 63% 30.27 in 10.0 mi WNW 8.1 mph - N/A   Mostly Cloudy
9:15 PM 21.2 °F 10.9 °F 10.4 °F 63% 30.27 in 10.0 mi WNW 9.2 mph - N/A   Scattered Clouds
9:35 PM 21.2 °F 10.9 °F 10.4 °F 63% 30.27 in 10.0 mi NW 9.2 mph - N/A   Scattered Clouds
9:55 PM 21.2 °F 9.5 °F 10.4 °F 63% 30.27 in 10.0 mi NW 11.5 mph - N/A   Scattered Clouds
10:15 PM 21.2 °F 11.7 °F 10.4 °F 63% 30.27 in 10.0 mi NW 8.1 mph - N/A   Scattered Clouds
10:35 PM 19.4 °F 9.5 °F 10.4 °F 68% 30.27 in 10.0 mi NNW 8.1 mph - N/A   Scattered Clouds
10:55 PM 19.4 °F 9.5 °F 8.6 °F 63% 30.27 in 10.0 mi NNW 8.1 mph - N/A   Clear
11:15 PM 19.4 °F 7.9 °F 6.8 °F 58% 30.27 in 10.0 mi NNW 10.4 mph 16.1 mph N/A   Clear
11:35 PM 19.4 °F 7.9 °F 6.8 °F 58% 30.26 in 10.0 mi NNW 10.4 mph - N/A   Clear
11:55 PM 17.6 °F 4.3 °F 6.8 °F 63% 30.27 in 10.0 mi NNW 12.7 mph 18.4 mph N/A   Clear